Location: Neuvy Saint Sepulchre
(46.5953°N, 1.8122°E)
Time: 08:43:09
(UTC+02:00)

ISS - Pass Details

Date: 17 July 2021
Orbit: 419 x 421 km, 51.6° (Epoch: 03 August)

Event Time Altitude Azimuth Distance (km) Brightness Sun altitude
Rises 02:56:48 0° 296° (WNW) 2,372 0.2 -21.0°
Reaches altitude 10° 02:58:55 10° 299° (WNW) 1,506 -0.8 -20.9°
Maximum altitude 03:02:17 64° 22° (NNE) 470 -3.4 -20.7°
Drops below altitude 10° 03:05:37 10° 105° (ESE) 1,499 -0.9 -20.6°
Sets 03:07:44 0° 108° (ESE) 2,360 0.1 -20.5°
